GW5851 Weather Reports


Display with metric or nautical units.
time (UTC)temp
F
wind
direction
speed
MPH
gust
MPH
rain 1hr
in
rain 24hr
in
rain mn
in
humidity
%
barometer
mb
20260503033155 33 180 0.0 0.0 0.00 0.00 0.00 85 982.0
20260503032655 33 180 0.0 0.0 0.00 0.00 0.00 85 982.0
20260503032157 33 180 0.0 0.0 0.00 0.00 0.00 85 982.0
20260503031655 33 180 0.0 0.0 0.00 0.00 0.00 84 982.0
20260503031155 33 180 0.0 0.0 0.00 0.00 0.00 83 982.0
20260503030655 33 180 0.0 0.0 0.00 0.00 0.00 83 982.0
20260503030155 34 180 0.0 0.0 0.00 0.00 0.00 83 982.0
20260503025656 34 180 0.0 0.0 0.00 0.00 0.00 84 982.0
20260503025155 34 180 0.0 0.0 0.00 0.00 0.00 84 982.0
20260503024655 34 180 0.0 0.0 0.00 0.00 0.00 83 982.0
20260503024156 34 180 0.0 0.0 0.00 0.00 0.00 82 982.0
20260503023655 34 180 0.0 0.0 0.00 0.00 0.00 82 982.0
20260503023156 34 180 0.0 0.0 0.00 0.00 0.00 82 982.0
20260503022655 34 180 0.0 0.0 0.00 0.00 0.00 81 982.0
20260503022155 35 180 0.0 0.0 0.00 0.00 0.00 79 982.0
20260503021655 35 180 0.0 0.0 0.00 0.00 0.00 79 982.0
20260503021156 35 180 0.0 0.0 0.00 0.00 0.00 79 983.0
20260503020656 35 180 0.0 0.0 0.00 0.00 0.00 78 982.0
20260503020155 35 180 0.0 1.0 0.00 0.00 0.00 78 982.0
20260503015655 35 180 0.0 0.0 0.00 0.00 0.00 76 982.0
20260503015155 35 180 0.0 0.0 0.00 0.00 0.00 74 982.0
20260503014655 36 180 0.0 0.0 0.00 0.00 0.00 72 982.0
20260503014155 37 180 0.0 0.0 0.00 0.00 0.00 71 982.0
20260503013655 37 180 0.0 0.0 0.00 0.00 0.00 69 982.0
20260503013156 38 180 0.0 0.0 0.00 0.00 0.00 68 982.0
20260503012655 38 180 0.0 0.0 0.00 0.00 0.00 67 982.0
20260503012155 39 181 0.0 0.0 0.00 0.00 0.00 66 982.0
20260503011655 40 181 0.0 1.0 0.00 0.00 0.00 65 982.0
20260503011155 40 180 0.0 0.0 0.00 0.00 0.00 64 982.0
20260503010655 40 180 0.0 0.0 0.00 0.00 0.00 64 982.0
20260503010155 40 180 0.0 0.0 0.00 0.00 0.00 61 982.0
20260503005656 41 180 0.0 0.0 0.00 0.00 0.00 60 982.0
20260503005155 42 180 0.0 0.0 0.00 0.00 0.00 57 982.0
20260503004656 42 180 0.0 0.0 0.00 0.00 0.00 54 982.0
20260503004155 43 185 0.0 0.0 0.00 0.00 0.00 53 982.0
20260503003655 44 200 0.0 1.0 0.00 0.00 0.00 52 982.0
20260503003155 44 200 0.0 0.0 0.00 0.00 0.00 52 982.0
20260503002655 45 206 1.0 1.0 0.00 0.00 0.00 51 982.0
20260503002155 45 211 1.0 2.0 0.00 0.00 0.00 51 982.0
20260503001656 45 211 0.0 0.0 0.00 0.00 0.00 51 982.0
20260503001155 46 212 0.0 0.0 0.00 0.00 0.00 50 982.0
20260503000655 46 266 1.0 1.0 0.00 0.00 0.00 49 982.0
20260503000155 47 270 2.0 2.0 0.00 0.00 0.00 47 982.0
20260502235655 47 262 1.0 6.0 0.00 0.00 0.00 46 982.0
20260502235154 48 274 3.0 4.0 0.00 0.00 0.00 46 982.0
20260502234655 47 275 3.0 6.0 0.00 0.00 0.00 45 982.0
20260502234155 47 283 2.0 6.0 0.00 0.00 0.00 46 982.0
20260502233655 47 273 2.0 3.0 0.00 0.00 0.00 47 982.0
20260502233155 47 259 2.0 2.0 0.00 0.00 0.00 47 982.0
20260502232657 47 271 0.0 4.0 0.00 0.00 0.00 47 982.0
20260502232155 47 294 1.0 6.0 0.00 0.00 0.00 46 982.0
20260502231655 47 292 4.0 7.0 0.00 0.00 0.00 44 982.0
20260502231155 47 251 4.0 7.0 0.00 0.00 0.00 44 982.0
20260502230655 47 265 2.0 4.0 0.00 0.00 0.00 44 982.0
20260502230156 47 274 3.0 6.0 0.00 0.00 0.00 43 982.0
20260502225655 48 302 3.0 6.0 0.00 0.00 0.00 44 982.0
20260502225155 48 289 4.0 7.0 0.00 0.00 0.00 44 982.0
20260502224655 48 267 3.0 7.0 0.00 0.00 0.00 42 982.0
20260502224155 48 321 2.0 2.0 0.00 0.00 0.00 45 982.0
20260502223655 48 344 4.0 4.0 0.00 0.00 0.00 43 982.0
20260502223156 48 248 3.0 4.0 0.00 0.00 0.00 46 982.0
20260502222655 48 273 2.0 3.0 0.00 0.00 0.00 44 982.0
20260502222155 48 340 2.0 4.0 0.00 0.00 0.00 43 982.0
20260502221655 48 298 3.0 4.0 0.00 0.00 0.00 43 982.0
20260502221155 48 330 3.0 3.0 0.00 0.00 0.00 42 982.0
20260502220655 49 309 3.0 11.0 0.00 0.00 0.00 40 982.0
20260502220155 48 337 5.0 7.0 0.00 0.00 0.00 41 982.0
20260502215655 48 321 2.0 3.0 0.00 0.00 0.00 45 982.0
20260502215155 48 272 4.0 8.0 0.00 0.00 0.00 44 982.0
20260502214655 49 298 3.0 7.0 0.00 0.00 0.00 42 982.0
20260502214156 49 275 3.0 6.0 0.00 0.00 0.00 41 982.0
20260502213655 49 14 3.0 6.0 0.00 0.00 0.00 44 982.0
20260502213155 48 303 2.0 3.0 0.00 0.00 0.00 44 982.0
20260502212655 48 246 2.0 7.0 0.00 0.00 0.00 43 982.0
20260502212155 48 298 3.0 7.0 0.00 0.00 0.00 45 982.0
20260502211655 48 2 4.0 7.0 0.00 0.00 0.00 42 982.0
20260502211155 47 313 2.0 7.0 0.00 0.00 0.00 43 982.0
20260502210655 47 356 5.0 8.0 0.00 0.00 0.00 43 982.0
20260502210155 47 200 2.0 7.0 0.00 0.00 0.00 43 982.0
20260502205657 47 347 5.0 6.0 0.00 0.00 0.00 42 982.0
20260502205155 48 278 5.0 9.0 0.00 0.00 0.00 41 982.0
20260502204655 48 273 4.0 8.0 0.00 0.00 0.00 43 982.0
20260502204155 49 285 4.0 9.0 0.00 0.00 0.00 40 982.0
20260502203655 48 355 4.0 7.0 0.00 0.00 0.00 43 982.0
20260502203155 48 308 2.0 4.0 0.00 0.00 0.00 40 982.0
20260502202655 48 355 6.0 9.0 0.00 0.00 0.00 40 983.0
20260502202155 48 275 2.0 6.0 0.00 0.00 0.00 42 983.0
20260502201655 48 309 3.0 7.0 0.00 0.00 0.00 43 982.0
20260502201155 48 285 6.0 9.0 0.00 0.00 0.00 43 983.0
20260502200655 48 300 6.0 9.0 0.00 0.00 0.00 40 983.0
20260502200155 48 298 5.0 6.0 0.00 0.00 0.00 40 983.0
20260502195655 48 321 3.0 4.0 0.00 0.00 0.00 42 983.0
20260502195156 48 254 4.0 7.0 0.00 0.00 0.00 43 983.0
20260502194655 48 260 6.0 9.0 0.00 0.00 0.00 41 983.0
20260502194157 48 256 2.0 9.0 0.00 0.00 0.00 42 983.0
20260502193655 48 291 2.0 9.0 0.00 0.00 0.00 43 983.0
20260502193155 48 271 6.0 7.0 0.00 0.00 0.00 42 983.0
20260502192655 48 333 5.0 6.0 0.00 0.00 0.00 41 983.0
20260502192155 47 318 3.0 6.0 0.00 0.00 0.00 44 983.0
20260502191655 48 299 2.0 6.0 0.00 0.00 0.00 41 983.0
20260502191156 48 263 4.0 8.0 0.00 0.00 0.00 41 983.0
20260502190655 48 358 5.0 8.0 0.00 0.00 0.00 40 984.0
20260502190156 48 268 4.0 8.0 0.00 0.00 0.00 40 983.0
20260502185655 48 300 3.0 4.0 0.00 0.00 0.00 42 983.0
20260502185155 48 302 2.0 8.0 0.00 0.00 0.00 41 983.0
20260502184655 48 284 6.0 8.0 0.00 0.00 0.00 40 983.0
20260502184155 48 288 4.0 8.0 0.00 0.00 0.00 40 983.0
20260502183655 48 358 4.0 7.0 0.00 0.00 0.00 42 983.0
20260502183156 48 347 6.0 10.0 0.00 0.00 0.00 41 983.0
20260502182654 47 272 2.0 8.0 0.00 0.00 0.00 43 983.0
20260502182155 48 286 4.0 8.0 0.00 0.00 0.00 41 983.0
20260502181655 48 1 4.0 6.0 0.00 0.00 0.00 40 983.0
20260502181155 49 217 6.0 9.0 0.00 0.00 0.00 38 983.0
20260502180655 50 230 4.0 8.0 0.00 0.00 0.00 39 983.0
20260502180155 49 280 3.0 8.0 0.00 0.00 0.00 49 983.0
20260502170155 50 8 6.0 8.0 0.00 0.00 0.00 39 984.0
20260502164156 46 270 6.0 8.0 0.00 0.00 0.00 44 984.0
20260502163655 47 217 4.0 9.0 0.00 0.00 0.00 44 984.0
20260502163155 47 264 2.0 4.0 0.00 0.00 0.00 44 984.0
20260502162655 48 332 4.0 9.0 0.00 0.00 0.00 41 984.0
20260502162156 48 323 3.0 4.0 0.00 0.00 0.00 47 984.0
20260502161655 46 307 2.0 4.0 0.00 0.00 0.00 49 984.0
20260502161155 46 273 2.0 7.0 0.00 0.00 0.00 44 984.0
20260502160655 47 301 7.0 15.0 0.00 0.00 0.00 45 984.0
20260502160155 46 25 4.0 9.0 0.00 0.00 0.00 46 984.0
20260502152156 44 308 2.0 3.0 0.00 0.00 0.00 48 984.0
20260502151655 45 347 3.0 6.0 0.00 0.00 0.00 45 984.0
20260502151156 46 273 4.0 6.0 0.00 0.00 0.00 46 984.0
20260502150655 46 5 6.0 8.0 0.00 0.00 0.00 45 984.0
20260502150155 47 11 4.0 9.0 0.00 0.00 0.00 45 984.0
20260502130655 42 304 2.0 7.0 0.00 0.00 0.00 60 984.0
20260502130155 42 8 5.0 7.0 0.00 0.00 0.00 60 984.0
20260502123655 41 303 3.0 3.0 0.00 0.00 0.00 63 984.0
20260502123156 41 17 2.0 6.0 0.00 0.00 0.00 64 984.0
20260502122655 41 7 4.0 6.0 0.00 0.00 0.00 65 984.0
20260502122155 40 3 3.0 7.0 0.00 0.00 0.00 65 984.0
20260502121656 40 324 2.0 3.0 0.00 0.00 0.00 66 984.0
20260502121155 40 329 3.0 4.0 0.00 0.00 0.00 66 984.0
20260502120655 40 233 1.0 4.0 0.00 0.00 0.00 67 984.0
20260502120155 40 320 4.0 6.0 0.00 0.00 0.00 67 984.0
20260502115655 39 21 2.0 3.0 0.00 0.00 0.00 67 984.0
20260502115155 39 291 3.0 3.0 0.00 0.00 0.00 69 984.0
20260502114657 39 20 2.0 3.0 0.00 0.00 0.00 70 984.0
20260502114155 38 317 4.0 4.0 0.00 0.00 0.00 70 984.0
20260502113655 38 326 1.0 3.0 0.00 0.00 0.00 72 984.0
20260502113155 37 292 3.0 4.0 0.00 0.00 0.00 73 984.0
20260502112655 37 271 1.0 3.0 0.00 0.00 0.00 74 984.0
20260502112155 36 259 1.0 1.0 0.00 0.00 0.00 76 984.0
20260502111655 35 285 2.0 3.0 0.00 0.00 0.00 77 984.0
20260502111155 34 350 1.0 1.0 0.00 0.00 0.00 79 983.0
20260502110655 33 267 2.0 2.0 0.00 0.00 0.00 80 983.0
20260502110155 33 279 1.0 2.0 0.00 0.00 0.00 82 983.0
20260502105655 32 247 0.0 1.0 0.00 0.00 0.00 82 983.0
20260502105155 32 272 0.0 1.0 0.00 0.00 0.00 82 984.0
20260502104655 32 246 0.0 0.0 0.00 0.00 0.00 81 983.0
20260502104155 32 269 0.0 1.0 0.00 0.00 0.00 80 984.0
20260502103656 33 271 1.0 2.0 0.00 0.00 0.00 80 983.0
20260502103155 33 277 1.0 2.0 0.00 0.00 0.00 80 984.0
20260502102655 33 251 0.0 1.0 0.00 0.00 0.00 79 983.0
20260502102155 33 294 1.0 2.0 0.00 0.00 0.00 78 984.0
20260502101656 33 255 1.0 2.0 0.00 0.00 0.00 78 983.0
20260502101155 33 239 0.0 1.0 0.00 0.00 0.00 77 983.0
20260502100655 34 283 1.0 1.0 0.00 0.00 0.00 77 983.0
20260502100155 34 269 1.0 3.0 0.00 0.00 0.00 77 983.0
20260502091155 35 251 1.0 1.0 0.00 0.00 0.00 72 983.0
20260502090655 36 209 0.0 3.0 0.00 0.00 0.00 72 983.0
20260502090155 36 255 1.0 2.0 0.00 0.00 0.00 71 983.0
20260502071155 39 290 1.0 2.0 0.00 0.00 0.00 66 983.0
20260502070655 39 334 0.0 1.0 0.00 0.00 0.00 67 982.0
20260502070155 39 26 0.0 1.0 0.00 0.00 0.00 66 983.0
20260502065655 39 315 0.0 3.0 0.00 0.00 0.00 66 983.0
20260502065156 39 299 0.0 1.0 0.00 0.00 0.00 66 983.0
20260502064655 39 334 2.0 4.0 0.00 0.00 0.00 65 983.0
20260502064155 39 9 0.0 2.0 0.00 0.00 0.00 66 983.0
20260502063655 39 319 0.0 1.0 0.00 0.00 0.00 65 983.0
20260502063155 40 354 1.0 2.0 0.00 0.00 0.00 66 983.0
20260502062655 40 8 2.0 3.0 0.00 0.00 0.00 65 983.0
20260502062155 40 10 2.0 2.0 0.00 0.00 0.00 65 983.0
20260502061655 40 38 1.0 2.0 0.00 0.00 0.00 65 983.0
20260502061156 40 21 2.0 4.0 0.00 0.00 0.00 65 983.0
20260502060655 40 344 2.0 7.0 0.00 0.00 0.00 65 983.0
20260502060155 40 23 2.0 4.0 0.00 0.00 0.00 69 983.0
20260502055655 40 7 2.0 3.0 0.00 0.00 0.00 70 983.0
20260502055155 40 355 0.0 1.0 0.00 0.00 0.00 73 983.0
20260502054655 40 356 2.0 2.0 0.00 0.00 0.00 73 983.0
20260502054155 40 6 1.0 1.0 0.00 0.00 0.00 73 983.0
20260502053655 40 17 0.0 1.0 0.00 0.00 0.00 72 983.0
20260502053155 40 8 1.0 2.0 0.00 0.00 0.00 72 983.0
20260502052655 40 54 1.0 1.0 0.00 0.00 0.00 71 983.0
20260502052155 40 32 1.0 3.0 0.00 0.00 0.00 71 983.0
20260502051656 40 17 3.0 3.0 0.00 0.00 0.00 71 983.0
20260502051154 40 9 2.0 2.0 0.00 0.00 0.00 71 983.0
20260502050655 40 48 1.0 6.0 0.00 0.00 0.00 70 983.0
20260502050155 40 357 2.0 3.0 0.00 0.00 0.00 72 983.0
20260502045657 40 18 1.0 3.0 0.00 0.00 0.00 72 983.0
20260502045156 40 22 4.0 8.0 0.00 0.00 0.00 72 983.0
20260502044655 40 4 2.0 3.0 0.00 0.00 0.00 73 983.0
20260502044155 40 300 0.0 2.0 0.00 0.00 0.00 74 983.0
20260502043655 40 1 1.0 2.0 0.00 0.00 0.00 74 983.0
20260502043156 40 252 1.0 1.0 0.00 0.00 0.00 75 983.0
20260502042655 40 294 0.0 3.0 0.00 0.00 0.00 74 982.0
20260502042155 39 289 0.0 2.0 0.00 0.00 0.00 75 982.0
20260502041701 39 266 0.0 3.0 0.00 0.00 0.00 76 982.0
20260502041155 39 253 0.0 1.0 0.00 0.00 0.00 77 982.0
20260502040655 39 277 3.0 3.0 0.00 0.00 0.00 77 982.0
20260502040155 39 273 2.0 3.0 0.00 0.00 0.00 81 983.0
20260502035655 39 252 0.0 0.0 0.00 0.00 0.00 80 982.0
20260502035155 38 252 0.0 0.0 0.00 0.00 0.00 81 982.0
20260502034655 38 252 0.0 0.0 0.00 0.00 0.00 82 983.0
20260502034155 38 252 0.0 0.0 0.00 0.00 0.00 81 982.0
20260502033655 37 252 0.0 0.0 0.00 0.00 0.00 81 982.0